Location: Kuffner-Sternwarte
(48.2130°N, 16.2960°E)
Time: 21:19:28
(UTC+01:00)

N. Korean satellite - Visible Passes

Search period start: 17 February 2019 00:00
Search period end: 27 February 2019 00:00
Orbit: 457 x 510 km, 97.2° (Epoch: 17 February)

Date Brightness Start Highest point End Pass type
(mag) Time Alt. Az. Time Alt. Az. Time Alt. Az.
17 Feb 9.8 05:17:09 10° NE 05:19:28 17° E 05:21:45 10° SE visible
18 Feb 6.4 06:24:54 10° N 06:28:24 72° WNW 06:31:50 10° SSW visible
19 Feb 7.4 06:00:13 10° NNE 06:03:39 54° E 06:07:02 10° S visible
19 Feb 9.9 18:13:33 10° SW 18:16:10 18° W 18:18:47 10° NW visible
20 Feb 8.9 05:35:48 10° NE 05:38:49 27° E 05:41:46 10° SSE visible
21 Feb 9.9 05:11:53 10° NE 05:13:52 14° E 05:15:50 10° SE visible
22 Feb 10.5 18:34:24 10° WSW 18:35:33 11° W 18:36:44 10° WNW visible
23 Feb 7.7 05:54:43 10° NNE 05:58:04 46° E 06:01:23 10° S visible
23 Feb 9.8 18:07:49 10° SW 18:10:36 21° W 18:13:22 10° NW visible
24 Feb 9.2 05:30:21 10° NE 05:33:12 23° E 05:36:00 10° SSE visible
25 Feb 10.1 05:06:41 10° ENE 05:08:14 13° E 05:09:47 10° ESE visible
26 Feb 10.3 18:28:17 10° WSW 18:29:57 13° W 18:31:35 10° WNW visible
